Weather History for Patuxent River, MD

Change the Weather History Date:

Sunday, March 17, 2013

  Actual Average Record
Temperature  
Mean Temperature 40 °F -  
Max Temperature 42 °F 54 °F 75 °F (1999)
Min Temperature 37 °F 35 °F 24 °F (1981)
Degree Days  
Heating Degree Days 26    
Moisture  
Dew Point 32 °F    
Average Humidity 77    
Maximum Humidity 87    
Minimum Humidity 57    
Precipitation  
Precipitation 0.03 in - - ()
Sea Level Pressure  
Sea Level Pressure 30.14 in    
Wind  
Wind Speed 9 mph (NNE)    
Max Wind Speed 15 mph    
Max Gust Speed -    
Visibility 8 miles    
Events Rain    
Averages and records for this station are not official NWS values.
T = Trace of Precipitation, MM = Missing Value Source: NWS Daily Summary

Daily Weather History Graph

Daily Weather History Graph

Search for Another Location

Airport:

Trip Planner

Search our weather history database for the weather conditions in past years. The results will help you decide how hot, cold, wet, or windy it might be!

Date:

Astronomy

Mar. 17, 2013 Rise Set
Actual Time 7:13 AM EDT 7:14 PM EDT
Civil Twilight 6:47 AM EDT 7:41 PM EDT
Nautical Twilight 6:16 AM EDT 8:12 PM EDT
Astronomical Twilight 5:45 AM EDT 8:43 PM EDT
Moon 10:29 AM EDT (3/17) 12:16 AM EDT (3/17)
Length of Visible Light 12h 54m
Length of Day
12h 01m
Waxing Crescent, 31% of the Moon is Illuminated
Mar 17
Waxing Crescent
Mar 19
First Quarter
Mar 27
Full
Apr 3
Last Quarter
Apr 10
New

Hourly Weather History & Observations

Time (EDT) Temp. Windchill Dew Point Humidity Pressure Visibility Wind Dir Wind Speed Gust Speed Precip Events Conditions
12:52 AM 39.9 °F 32.5 °F 34.0 °F 79% 29.91 in 8.0 mi North 12.7 mph - N/A   Clear
1:38 AM 39.2 °F 32.0 °F 33.8 °F 81% 29.92 in 9.0 mi North 11.5 mph - N/A   Mostly Cloudy
1:52 AM 39.9 °F 32.1 °F 34.0 °F 79% 29.93 in 9.0 mi North 13.8 mph - N/A   Overcast
2:52 AM 39.0 °F 32.8 °F 34.0 °F 82% 29.95 in 8.0 mi NE 9.2 mph - N/A   Overcast
3:52 AM 39.0 °F 33.4 °F 34.0 °F 82% 29.96 in 8.0 mi North 8.1 mph - N/A   Overcast
4:52 AM 39.9 °F 34.5 °F 34.0 °F 79% 29.98 in 7.0 mi NNW 8.1 mph - N/A   Overcast
5:52 AM 39.0 °F 31.0 °F 32.0 °F 76% 30.01 in 10.0 mi North 13.8 mph - N/A   Overcast
6:06 AM 39.2 °F 30.8 °F 32.0 °F 75% 30.02 in 10.0 mi North 15.0 mph - N/A   Overcast
6:52 AM 39.0 °F 32.3 °F 32.0 °F 76% 30.04 in 9.0 mi NNE 10.4 mph - N/A   Overcast
7:52 AM 39.0 °F 32.8 °F 32.0 °F 76% 30.08 in 10.0 mi NNE 9.2 mph - N/A   Overcast
8:52 AM 37.9 °F 32.1 °F 30.0 °F 73% 30.11 in 10.0 mi NE 8.1 mph - N/A   Overcast
9:52 AM 39.0 °F 31.8 °F 30.0 °F 70% 30.12 in 10.0 mi NNE 11.5 mph - N/A   Overcast
10:52 AM 41.0 °F 35.8 °F 28.9 °F 62% 30.16 in 10.0 mi North 8.1 mph - N/A   Overcast
11:52 AM 41.0 °F 35.2 °F 28.0 °F 60% 30.17 in 10.0 mi North 9.2 mph - N/A   Overcast
12:52 PM 41.0 °F 35.8 °F 28.9 °F 62% 30.18 in 10.0 mi North 8.1 mph - 0.00 in Rain Light Rain
1:17 PM 42.8 °F 37.5 °F 28.4 °F 57% 30.16 in 10.0 mi North 9.2 mph - 0.00 in   Overcast
1:23 PM 41.0 °F 34.3 °F 28.4 °F 61% 30.17 in 10.0 mi North 11.5 mph - 0.00 in Rain Light Rain
1:52 PM 39.0 °F 31.8 °F 32.0 °F 76% 30.18 in 10.0 mi North 11.5 mph - 0.00 in Rain Light Rain
2:52 PM 39.0 °F 34.8 °F 32.0 °F 76% 30.15 in 10.0 mi NNE 5.8 mph - 0.00 in   Overcast
3:52 PM 39.0 °F 33.4 °F 32.0 °F 76% 30.18 in 10.0 mi North 8.1 mph - 0.00 in Rain Light Rain
4:52 PM 37.0 °F 29.8 °F 33.1 °F 86% 30.19 in 6.0 mi North 10.4 mph - 0.01 in Rain Light Rain
5:52 PM 37.0 °F 32.4 °F 33.1 °F 86% 30.20 in 7.0 mi NNE 5.8 mph - 0.00 in Rain Light Rain
6:52 PM 37.0 °F 34.5 °F 33.1 °F 86% 30.22 in 4.0 mi NNE 3.5 mph - 0.01 in Rain Light Rain
7:02 PM 37.4 °F 33.8 °F 33.8 °F 87% 30.22 in 5.0 mi NNE 4.6 mph - 0.00 in Rain Light Rain
7:52 PM 37.0 °F 34.5 °F 33.1 °F 86% 30.24 in 6.0 mi North 3.5 mph - 0.00 in   Overcast
8:11 PM 37.4 °F 34.9 °F 33.8 °F 87% 30.24 in 6.0 mi NNE 3.5 mph - 0.00 in Rain Light Rain
8:20 PM 37.4 °F - 33.8 °F 87% 30.25 in 6.0 mi Calm Calm - 0.00 in Rain Light Rain
8:43 PM 37.4 °F - 33.8 °F 87% 30.24 in 6.0 mi Calm Calm - 0.01 in Rain Light Rain
8:52 PM 37.0 °F 34.5 °F 32.0 °F 82% 30.25 in 6.0 mi NE 3.5 mph - 0.01 in Rain Light Rain
8:59 PM 37.4 °F - 32.0 °F 81% 30.25 in 6.0 mi Calm Calm - 0.00 in   Overcast
9:52 PM 37.0 °F - 33.1 °F 86% 30.25 in 7.0 mi Calm Calm - 0.00 in   Overcast
10:52 PM 37.9 °F 32.7 °F 30.0 °F 73% 30.27 in 10.0 mi NE 6.9 mph - N/A   Overcast
11:52 PM 37.9 °F 33.5 °F 28.9 °F 70% 30.28 in 10.0 mi ENE 5.8 mph - N/A   Overcast